Terug naar catalogus

SL-12 DEB

LostHEO
NORAD 41651·DEBRIS·🇷🇺 Russia

Gelanceerd Dec 25, 2008 vanaf Baikonur Cosmodrome

Loading…

Volgende Passages (komende 24 uur)

TLE

VerouderdSource: Space-Track

Epoch: Sep 30, 2016, 10:20 UTC

1 41651U 08067X   16274.43082585 -.00000048  00000-0  00000+0 0  9995
2 41651  64.8611 347.9234 5382139  70.2204 338.8755  4.13828431  4493

Volg SL-12 DEB in realtime met AllMySat

Download on the App Store